Regional Weather Roundup
Issued by NWS

Home | Current Version | Previous Version | Graphics & Text | Print | Product List | Glossary Off
Versions: 1 2 3 4 5 6 7 8 9 10 11 12 13 14 15 16 17 18 19 20 21 22 23 24 25 26 27 28 29 30 31 32 33 34 35 36 37 38 39 40 41 42 43 44 45 46 47 48 49 50

000
ASUS43 KLOT 262209
RWRIL

ILLINOIS REGIONAL WEATHER ROUNDUP
NATIONAL WEATHER SERVICE CHICAGO/ROMEOVILLE IL
500 PM CDT MON SEP 26 2016

NOTE: "FAIR" INDICATES FEW OR NO CLOUDS BELOW 12,000 FEET WITH NO
SIGNIFICANT WEATHER AND/OR OBSTRUCTIONS TO VISIBILITY.

* THESE STATIONS ARE NOT UNDER NWS QUALITY CONTROL. THEY ALSO MAY NOT
  REPORT WEATHER SUCH AS PRECIPITATION OR FOG.

ILZ001-002-007-009-015-016-024-262300-
NORTHWEST ILLINOIS

CITY           SKY/WX    TMP DP  RH WIND       PRES   REMARKS
MOLINE         SUNNY     71  32  23 W18G28    29.99F
STERLING*      SUNNY     69  35  28 W25G33    29.96F
SAVANNA*       SUNNY     69  33  26 W15G28    29.96S
$$

ILZ003-004-008-010-011-017-018-262300-
NORTH CENTRAL ILLINOIS

CITY           SKY/WX    TMP DP  RH WIND       PRES   REMARKS
ROCKFORD       MOSUNNY   68  36  30 W17G29    29.95S
FREEPORT*      SUNNY     66  32  28 W18G31    29.96S
ROCHELLE*      SUNNY     67  37  32 W22G28    29.96S
DE KALB*       SUNNY     67  36  32 W18       29.95S
$$

ILZ005-006-012>014-019>023-262300-
NORTHEAST ILLINOIS

CITY           SKY/WX    TMP DP  RH WIND       PRES   REMARKS
CHICAGO-OHARE  MOSUNNY   69  32  25 W22G31    29.92S
CHICAGO-MIDWAY MOSUNNY   71  31  22 W18G29    29.93S
AURORA         SUNNY     70  34  26 W24G32    29.94F
LANSING*       SUNNY     70  38  31 W22G28    29.94S
JOLIET*        SUNNY     72  32  23 W12G25    29.95F
WAUKEGAN       SUNNY     67  35  30 W12G23    29.89S
DUPAGE AIRPORT SUNNY     69  33  26 W14G35    29.93S
KANKAKEE*      SUNNY     71  31  22 W17G24    29.97S
WHEELING       SUNNY     68  31  25 W17G30    29.92S
MORRIS*        SUNNY     71  30  22 W15G26    29.95S
ROMEOVILLE*    SUNNY     69  39  33 W20G29    29.95S
NORTHERLY ISL    N/A     70  30  22 W18         N/A
$$

LMZ740>746-262300-
SOUTHERN LAKE MICHIGAN

STATION/POSITION SKY/WX   TEMP    WIND        PRES    VSBY  WAVE
                          AIR SEA DIR/SP/G                  HT/PER
                          (F)     (DEG/KT/KT) (MB)    (MI)  (FT/S)
SOUTHERN BUOY              66 71  260/ 23/ 29 1010.9F         5/ 5
WILMETTE HARBOR            67 62  290/ 17/ 27   N/A           3/ 3
HARRISON CRIB              68     270/ 20/ 25   N/A
BURNHAM HARBOR             70     260/  7/ 19   N/A
CALUMET HARBOR             70     250/ 10/ 23 1012.9F
BURNS HARBOR               68     260/ 20     1013.9F
MICHIGAN CITY              67     240/ 24/ 25   N/A
MICHIGAN CITY 6N           68 66  270/ 19/ 23   N/A           5/ 5
ST. JOSEPH                 67 64  270/ 17/ 25 1013.0F         7/ 6
$$

ILZ025>027-034>036-040-047-049-050-058-095>099-262300-
WEST-CENTRAL ILLINOIS

CITY           SKY/WX    TMP DP  RH WIND       PRES   REMARKS
QUINCY         SUNNY     73  33  23 NW15G22   30.08F
GALESBURG*     SUNNY     71  34  25 W18G26    30.02F
MACOMB*        SUNNY     73  32  22 W16G25    30.07S
JACKSONVILLE*  SUNNY     73  33  23 W9G20     30.07S
PITTSFIELD*    SUNNY     73  36  26 W8        30.10S
$$

ILZ028>032-037-038-041>044-048-051>054-059>061-262300-
CENTRAL ILLINOIS

CITY           SKY/WX    TMP DP  RH WIND       PRES   REMARKS
PONTIAC        SUNNY     72  34  24 W20G25    29.99F
BLOOMINGTON    SUNNY     71  32  23 W18G26    30.02F
DECATUR        SUNNY     73  35  25 W13G22    30.04F
PEORIA         SUNNY     72  31  22 W16G23    30.02F
LACON*         SUNNY     71  27  19 W10G24    29.99S
LINCOLN*       SUNNY     73  36  25 W9G18     30.03F
SPRINGFIELD    SUNNY     75  31  19 W10G22    30.05F
TAYLORVILLE    SUNNY     73  34  24 W12G20    30.05F
$$

ILZ033-039-045-046-055>057-062-063-262300-
EAST-CENTRAL ILLINOIS

CITY           SKY/WX    TMP DP  RH WIND       PRES   REMARKS
CHAMPAIGN      SUNNY     73  31  21 W18G29    30.02F
RANTOUL*       SUNNY     73  32  22 W15G24    30.01S
MATTOON        SUNNY     72  31  22 W10       30.03F
PARIS*         SUNNY     73  36  25 W7        30.03F
$$

ILZ079-100>102-262300-
SOUTHWEST ILLINOIS

CITY           SKY/WX    TMP DP  RH WIND       PRES   REMARKS
ALTON          SUNNY     72  39  30 W12       30.09F
BELLEVILLE     SUNNY     74  41  30 W13       30.07F
CAHOKIA*       SUNNY     75  35  23 W10G18    30.09F
SPARTA*        SUNNY     71  43  36 W9        30.10F
$$

ILZ064>066-069>071-074>076-080>082-084>086-088>090-092>094-262300-
SOUTH-CENTRAL ILLINOIS

CITY           SKY/WX    TMP DP  RH WIND       PRES   REMARKS
CARBONDALE     SUNNY     72  49  44 NW8       30.09F
CAIRO*         SUNNY     73  53  49 NW7       30.09S HAZE
EFFINGHAM*     SUNNY     73  44  35 W13       30.07S
MARION         MOSUNNY   73  48  40 NW8       30.09F
MT. VERNON     SUNNY     72  43  35 W6        30.09S
CENTRALIA*     SUNNY     74  43  33 W7        30.07F
SALEM*         SUNNY     74  41  30 W8        30.08S
METROPOLIS*    SUNNY     73  50  43 CALM      30.09S
$$

ILZ067-068-072-073-078-083-087-091-262300-
SOUTHEAST ILLINOIS

CITY           SKY/WX    TMP DP  RH WIND       PRES   REMARKS
LAWRENCEVILLE  SUNNY     74  41  30 W10       30.05F
FLORA*         SUNNY     74  40  29 W10       30.07S
FAIRFIELD*     SUNNY     72  43  35 CALM      30.06S
HARRISBURG*    SUNNY     73  49  43 NW8       30.08F
ROBINSON*      SUNNY     72  40  31 W12       30.06S
CARMI*         SUNNY     73  48  40 W8        30.06F
$$

ABBREVIATIONS USED IN REMARKS
   TC - TEMPERATURE IN CELSIUS
  WCI - WIND CHILL INDEX
   HX - HEAT INDEX
  VSB - VISIBILITY
$$




USA.gov is the U.S. government's official web portal to all federal, state and local government web resources and services.